Wind_Speed
7 6 7 4 3 1 3 3 1 0 4 7 7 6 6 8 7 8 7 7 8 9 7 7 9 9 10 11 14 18 20 21 21 21 21 21 21 21 21 21 22 21 20 20 19 18 18 16 15 15 15 15 15 15 17 19 18 17 15 14 13 12 11 10 8 8 8 8 7 5 4 4 4 5 6 6 6 7 8 8 9 10 11 12 13 13 13
4 5 5 1 5 3 1 2 1 1 4 8 9 6 5 7 7 6 5 8 10 9 4 4 8 10 11 12 16 19 21 22 23 23 23 23 23 23 23 23 23 21 20 19 19 19 19 18 16 17 17 17 17 17 18 19 18 17 15 14 12 11 10 8 8 8 8 9 8 7 5 4 5 6 7 8 8 8 8 9 10 11 12 13 13 14 14
3 4 5 2 5 6 3 1 2 3 2 3 4 3 2 4 6 3 5 4 9 7 3 6 14 17 15 14 18 21 23 25 25 25 24 24 24 24 24 23 23 22 20 20 19 20 20 19 17 18 18 18 17 17 18 19 18 16 15 13 12 10 8 8 8 9 9 10 10 8 6 5 5 6 7 7 8 8 9 10 12 13 13 14 14 15 14
4 3 6 3 1 6 4 3 2 1 1 1 3 4 4 5 4 2 5 2 7 6 3 9 15 18 17 16 19 21 23 25 27 27 26 26 25 25 24 24 23 22 22 21 21 20 20 19 18 18 18 18 18 18 19 19 18 16 15 13 12 10 8 8 9 9 9 10 10 9 7 6 7 7 8 9 9 9 11 12 13 14 14 15 14 12 11
5 4 4 2 2 6 3 5 2 0 1 2 2 3 4 6 6 6 4 5 6 4 4 8 10 11 12 17 22 24 25 27 28 27 27 26 26 25 24 24 23 22 22 21 20 19 19 18 18 18 19 19 18 18 18 17 17 16 15 14 12 10 8 9 10 11 11 12 11 10 9 9 9 9 9 9 10 11 11 13 14 15 15 13 10 8 8
5 6 4 4 5 3 4 5 4 3 3 3 3 4 5 5 4 4 3 3 1 1 2 5 9 10 12 19 25 26 26 27 27 27 26 25 25 25 24 23 22 21 21 20 19 18 17 16 16 17 19 19 17 15 15 16 16 16 15 14 13 12 12 13 13 13 14 15 14 13 13 14 13 11 9 9 11 11 12 14 15 16 13 10 7 7 8
2 3 5 6 2 4 6 5 3 4 4 5 5 5 6 5 4 2 1 2 2 5 6 8 11 11 11 15 20 22 24 25 24 25 25 25 24 24 24 23 22 20 20 19 18 17 17 16 16 17 19 19 16 15 15 16 17 16 14 14 15 16 17 16 15 14 15 16 16 16 17 17 16 14 12 10 11 12 13 14 14 13 10 8 8 9 10
1 2 4 3 4 7 6 6 4 1 1 2 2 3 5 4 4 3 4 4 4 8 12 14 15 15 15 14 13 17 21 22 20 19 21 23 23 23 22 21 20 19 18 17 16 15 15 16 16 16 18 18 17 16 16 16 16 16 16 17 19 18 17 16 16 16 16 17 17 17 17 18 16 14 11 9 10 12 12 12 11 9 9 9 10 11 12
2 2 1 1 3 4 4 4 1 2 1 1 2 2 5 6 3 5 7 7 7 9 14 20 22 21 17 11 6 12 17 19 18 14 14 16 18 19 18 17 16 16 16 16 15 14 14 15 15 15 16 17 17 16 16 16 17 18 19 20 19 17 17 19 19 17 17 17 17 16 17 17 15 12 8 7 9 10 9 8 8 9 10 11 12 13 14
2 4 2 2 2 1 5 6 2 4 2 4 5 3 4 7 1 7 10 9 10 11 15 21 23 18 11 4 3 12 15 15 16 14 12 14 15 15 15 16 15 15 16 16 16 15 15 16 15 15 16 17 18 17 16 17 19 20 21 21 19 17 19 22 21 19 19 18 16 16 15 12 8 6 5 5 6 7 6 7 9 10 12 13 14 14 15
1 4 3 2 2 4 6 7 3 2 0 4 6 4 4 6 1 8 12 10 11 13 18 21 17 11 5 3 7 13 15 14 14 13 13 14 15 16 15 14 13 14 15 17 17 16 17 18 18 17 17 17 18 18 18 18 20 22 22 21 19 17 20 22 21 21 20 18 15 13 9 4 3 4 4 4 5 6 7 9 10 12 14 15 14 15 15
2 3 2 2 3 3 5 7 4 3 3 7 7 3 5 6 4 10 12 11 12 17 22 21 11 5 4 6 9 14 15 14 13 13 12 13 15 15 15 14 13 13 15 16 17 17 18 19 19 19 18 18 18 19 19 19 20 22 21 19 19 20 21 21 20 19 16 12 8 6 3 3 3 4 4 5 6 7 8 10 12 14 15 15 15 15 16
3 4 2 2 3 4 6 6 7 4 5 7 4 2 6 5 8 12 15 15 15 19 21 16 7 5 9 12 15 18 17 16 15 13 11 12 12 12 13 12 12 13 15 17 17 17 18 19 20 20 19 19 18 19 18 18 19 19 15 13 14 15 15 14 13 10 7 5 4 4 4 4 4 4 5 7 8 9 10 12 14 15 16 16 16 16 16
3 3 2 0 3 5 6 4 6 2 5 3 3 5 3 6 14 17 18 18 16 16 18 15 13 15 18 19 20 20 18 17 16 14 12 13 13 12 12 11 12 13 15 15 16 16 17 18 19 19 19 19 18 17 17 16 16 13 6 2 3 4 6 7 7 6 7 6 6 5 5 5 5 5 7 8 9 11 12 13 14 15 16 16 15 14 14
2 2 3 2 2 5 4 2 3 1 3 3 5 5 3 7 17 20 20 18 17 18 20 20 20 21 22 22 21 20 18 16 15 15 14 13 12 12 12 12 13 14 13 13 13 14 15 17 18 18 17 16 14 13 12 10 8 5 2 6 6 7 9 9 8 8 7 6 5 5 5 5 6 8 9 10 11 12 13 14 16 16 15 14 13 13 14
3 3 2 3 4 4 1 1 1 2 1 2 3 4 3 7 15 19 20 17 16 19 21 22 23 23 23 22 21 19 18 17 16 15 14 12 13 13 12 12 13 12 12 12 13 14 15 15 14 13 11 9 8 6 4 4 5 4 6 9 9 9 8 8 7 6 5 3 3 4 5 8 10 11 11 11 12 13 14 15 15 14 12 12 13 13 14
3 4 5 4 2 2 2 3 5 5 6 4 4 4 5 8 12 16 19 17 17 18 19 21 23 23 22 22 20 19 19 18 16 15 13 12 12 12 12 12 12 12 12 12 12 13 12 10 8 7 5 4 4 5 6 8 8 8 8 9 9 9 9 8 7 5 3 3 4 6 8 9 10 10 11 12 13 14 14 13 11 11 11 11 12 13 13
2 3 5 4 4 4 3 3 5 6 5 4 5 5 5 9 11 14 16 17 18 18 16 17 20 21 22 21 20 20 20 20 18 16 14 13 12 12 12 12 12 12 12 11 10 10 9 6 5 5 4 4 5 7 9 10 9 8 8 8 8 9 9 7 6 4 3 3 5 6 7 8 8 10 11 12 12 11 10 8 8 10 11 11 12 13 13
1 1 4 4 4 6 5 5 3 3 3 4 6 6 6 8 11 13 14 15 16 16 13 11 14 19 21 21 21 22 22 21 19 17 15 13 12 11 11 11 10 11 10 9 8 7 7 7 6 6 8 8 8 9 10 10 9 8 7 7 7 7 6 5 4 2 1 1 3 4 5 7 8 9 10 9 8 7 6 7 9 11 11 11 11 13 16
1 4 7 8 7 6 4 5 5 4 3 2 4 6 7 8 10 13 14 14 14 15 12 8 10 18 21 20 21 23 22 21 20 18 16 14 12 10 9 8 8 8 7 7 7 7 8 10 10 11 12 12 11 10 10 9 8 7 6 5 5 5 5 4 3 2 1 1 1 3 5 6 7 6 5 5 5 6 7 9 10 11 10 10 12 15 18
1 3 6 7 6 2 4 7 6 6 5 4 1 3 6 8 12 14 15 14 12 13 12 8 9 17 22 20 19 21 21 21 19 17 15 14 12 11 10 9 8 7 7 8 10 11 12 13 14 14 14 13 12 11 10 9 6 5 5 5 5 6 5 4 3 4 4 4 4 4 5 5 4 4 4 5 6 7 8 10 10 10 10 11 14 16 18
1 4 4 2 0 1 4 8 8 7 6 5 4 4 6 10 13 15 16 14 12 13 12 10 11 18 22 20 18 18 19 19 18 17 16 15 14 13 13 11 10 9 10 11 13 15 16 16 15 14 14 13 12 10 9 7 4 4 5 5 5 5 4 4 5 7 8 8 6 5 4 4 4 4 4 6 7 7 7 7 8 9 11 14 16 17 20
3 5 5 2 0 2 6 9 8 7 6 5 6 6 6 8 12 14 14 14 14 15 15 14 15 19 21 19 17 17 18 18 18 17 17 17 17 16 15 14 13 12 13 14 15 16 17 16 14 13 12 12 10 8 7 6 4 4 5 6 6 5 5 6 7 9 10 8 6 5 5 5 6 6 6 6 5 4 4 5 7 10 13 15 17 19 22
1 3 2 3 4 6 8 8 8 6 5 5 5 6 4 5 9 11 11 12 13 15 16 18 18 18 18 18 16 17 19 20 19 18 18 18 18 18 16 15 15 15 15 15 15 16 16 14 13 13 12 10 8 7 6 6 7 7 7 7 6 7 7 7 8 10 10 8 6 6 6 7 8 8 7 6 5 4 4 6 9 11 13 15 17 20 24
3 4 2 4 6 7 8 8 7 7 5 4 5 6 5 3 4 7 9 10 12 13 14 17 17 16 15 16 17 18 21 21 19 19 20 20 19 18 18 16 15 15 15 15 16 16 15 14 13 12 12 10 9 8 8 8 8 8 7 6 7 7 7 7 9 10 9 8 7 7 7 8 8 8 7 7 7 8 9 10 11 13 14 17 20 22 24
4 4 4 4 6 7 7 6 6 7 7 5 5 6 5 3 3 4 7 10 11 11 12 14 16 15 15 16 18 20 21 21 21 21 21 20 19 19 18 16 15 15 16 16 16 16 15 14 13 12 12 11 10 9 9 8 7 6 6 6 7 7 7 8 10 9 8 8 8 8 8 8 7 7 7 8 10 12 13 15 16 16 17 19 22 24 25
3 3 3 4 4 5 5 4 4 6 5 4 5 6 4 3 3 3 6 8 10 10 11 13 15 16 18 19 20 21 21 22 22 21 20 20 21 20 18 16 16 16 17 17 17 16 15 14 13 13 12 12 10 9 7 6 6 6 5 5 5 6 8 9 9 9 9 9 9 9 8 8 8 8 8 10 11 12 14 17 19 19 20 22 23 24 25
2 2 2 3 5 6 5 2 2 5 3 2 3 3 2 2 2 4 6 8 10 12 13 14 15 17 20 21 21 21 22 22 23 21 20 21 21 20 18 16 16 17 17 18 17 16 15 14 13 12 12 11 10 8 7 6 5 4 4 4 5 6 7 8 9 10 11 12 11 10 9 9 9 9 10 11 12 13 15 17 18 20 23 24 24 24 24
3 2 2 2 3 6 5 2 2 3 3 0 1 1 1 2 5 7 8 9 11 12 14 16 16 17 20 21 22 22 23 22 22 21 21 21 21 19 17 16 16 17 18 18 18 16 14 13 11 11 10 9 8 7 6 5 4 3 2 3 5 6 6 7 9 11 13 14 13 11 10 9 9 10 11 12 13 14 16 18 19 22 24 25 25 25 24
6 5 4 4 4 4 4 2 1 2 1 1 3 4 5 6 9 11 11 12 13 14 16 18 19 19 20 22 23 22 22 22 22 21 21 21 20 19 18 17 18 19 20 19 18 15 12 11 10 9 8 7 6 5 5 4 3 3 3 4 5 5 5 7 9 10 11 12 12 11 9 9 10 11 13 13 14 15 17 19 21 23 24 25 26 26 26
8 6 6 5 4 4 3 1 2 3 2 3 5 8 10 11 13 15 15 15 15 16 17 19 20 21 22 23 23 21 20 21 21 21 21 20 19 18 17 16 18 19 20 19 17 14 11 10 9 8 6 5 4 4 4 3 3 5 5 4 4 4 4 6 7 8 9 10 11 11 11 11 11 13 15 15 15 16 19 21 22 23 24 25 25 26 26
10 6 6 7 6 5 5 4 4 5 5 6 7 9 12 14 15 16 17 18 18 18 18 19 20 21 22 22 21 20 20 21 22 22 21 19 17 15 15 15 16 17 17 17 15 13 10 9 8 7 5 4 4 3 3 3 4 5 5 3 3 4 4 4 5 6 9 10 10 11 13 13 14 16 16 16 16 18 21 22 22 22 23 24 25 25 25
11 7 7 9 9 8 8 7 5 5 7 8 9 10 12 13 15 16 18 19 18 18 18 18 18 20 21 21 20 20 21 22 22 22 20 19 17 16 15 15 14 14 14 13 12 10 8 7 6 5 4 4 3 2 2 3 4 5 5 4 4 4 4 4 5 7 9 10 10 11 13 15 16 17 16 15 17 19 21 21 21 21 23 23 24 24 24
11 9 9 9 9 8 8 8 7 7 7 8 9 11 13 15 18 20 21 21 20 19 18 17 17 19 20 20 20 21 23 24 24 24 22 21 20 18 16 15 13 12 11 10 10 9 7 6 4 3 3 2 1 1 2 3 4 5 6 6 6 5 4 5 6 7 9 9 10 12 14 16 17 17 16 15 17 19 19 19 20 21 22 22 23 23 23
9 9 9 9 9 8 6 7 8 8 8 10 12 13 14 17 19 20 19 18 19 19 18 17 18 19 20 21 21 23 24 25 25 26 25 23 21 19 17 16 14 13 11 10 9 8 7 5 4 2 2 2 1 1 2 4 6 7 8 7 6 6 6 7 8 8 9 9 10 12 14 16 17 17 15 16 18 18 19 19 20 21 22 22 23 23 23
8 8 9 9 9 8 6 7 9 9 11 14 14 14 15 17 18 19 16 14 16 17 18 19 21 21 22 22 23 24 24 24 25 25 24 22 21 19 17 16 15 13 12 11 10 8 6 5 4 3 2 1 1 2 5 7 8 8 8 7 6 7 7 7 8 9 9 9 10 12 14 16 18 17 16 16 18 18 19 19 20 21 21 22 23 23 24
8 8 8 8 8 8 7 7 7 9 13 16 17 16 16 16 17 19 17 17 18 19 19 20 22 23 23 23 23 22 22 23 23 23 21 20 19 18 16 15 14 12 11 10 9 8 7 6 5 4 3 3 4 6 8 9 9 8 7 7 6 6 7 7 8 9 9 9 11 13 14 16 17 17 16 17 18 19 19 19 20 20 21 21 22 23 24
7 8 9 8 7 7 5 5 6 10 15 17 17 16 16 15 17 19 19 19 21 21 19 20 22 23 23 24 23 22 21 21 21 21 20 19 17 16 15 13 12 10 9 8 8 8 8 8 6 5 4 4 6 8 9 9 8 7 6 6 6 5 6 7 8 9 10 10 11 12 14 16 17 17 16 17 18 19 19 19 19 19 20 21 22 22 23
8 8 9 9 8 7 6 6 6 9 14 15 16 16 16 15 18 20 19 19 22 23 21 20 23 25 25 25 25 22 21 21 20 18 18 17 15 13 12 10 8 7 7 8 8 8 9 9 7 6 5 6 7 8 8 7 6 5 5 5 5 4 6 7 8 9 10 11 11 12 14 15 16 16 16 17 18 18 18 17 17 18 20 20 21 22 23
9 9 10 10 9 9 9 8 7 9 12 13 15 17 16 15 17 20 20 20 24 25 21 21 24 27 27 26 25 23 21 20 18 16 16 15 14 12 11 10 10 9 9 8 8 8 9 9 8 6 6 7 8 8 7 6 5 4 3 3 3 4 6 8 9 9 10 11 12 12 13 14 15 15 16 16 17 17 17 16 17 18 19 20 20 21 22
9 10 10 11 11 10 9 8 8 10 14 16 16 16 16 14 15 18 20 21 24 24 20 20 23 27 27 25 24 23 21 19 16 15 14 14 14 13 12 12 12 11 11 10 9 9 10 9 8 6 7 8 8 7 5 4 4 3 3 3 4 5 6 8 9 9 10 11 12 12 12 13 14 14 15 15 16 16 16 16 16 18 19 19 20 21 22
9 10 11 11 12 11 9 8 8 10 14 16 17 16 16 16 15 15 18 22 24 23 20 19 22 25 25 25 24 23 20 18 16 14 13 12 11 11 10 10 11 12 12 12 11 11 11 10 8 7 7 7 8 7 4 3 2 2 2 4 5 6 6 8 10 10 11 12 11 11 11 12 13 13 14 15 16 16 16 15 16 17 18 18 19 20 21
9 10 11 12 11 10 9 9 9 9 10 12 14 14 14 16 16 16 19 24 26 24 21 20 22 24 25 24 24 22 20 18 16 14 13 11 9 8 7 9 10 12 13 13 12 12 11 9 8 8 7 7 7 7 5 3 2 1 2 4 5 5 5 7 10 12 12 11 10 10 11 11 12 13 14 15 16 16 15 15 16 17 17 18 19 20 21
10 11 12 12 12 11 11 10 11 10 9 10 12 12 13 16 17 18 20 25 27 24 21 21 23 25 25 24 23 22 21 19 17 16 15 14 13 11 9 9 10 12 14 14 13 11 10 9 9 9 9 8 8 7 5 2 1 1 1 2 4 4 5 7 10 12 12 11 10 9 10 11 12 13 14 15 15 15 15 15 16 17 17 17 18 19 21
9 11 11 12 12 12 13 13 12 12 10 10 11 13 13 14 16 17 20 24 27 25 23 22 23 24 24 24 23 21 20 19 18 18 17 16 15 14 14 12 12 13 15 14 13 11 11 10 10 10 11 10 8 5 3 3 2 2 1 1 3 4 6 8 11 13 13 11 10 9 9 11 12 13 13 14 15 15 14 14 15 16 17 17 18 19 21
9 10 10 11 12 13 14 14 14 13 11 10 12 14 15 14 14 15 17 21 25 26 25 22 20 19 21 23 22 21 20 19 17 17 16 13 11 11 13 13 13 14 14 14 13 12 11 11 12 12 11 10 7 4 4 4 4 4 3 1 2 4 6 8 11 13 13 11 9 8 8 10 12 13 14 14 15 15 14 14 15 15 16 17 18 19 20
9 10 11 12 13 14 14 14 14 13 12 11 12 14 16 15 14 13 14 16 22 27 27 24 20 19 20 21 20 20 20 19 18 17 15 11 9 9 12 13 14 14 14 13 13 13 13 13 14 13 11 9 7 5 3 3 3 3 3 1 2 5 6 8 11 12 12 10 8 7 8 11 13 14 14 15 15 14 13 14 14 15 15 16 17 18 19
8 10 10 11 12 14 14 13 12 13 14 13 12 13 15 16 15 14 13 14 18 24 28 28 26 23 20 19 18 19 18 18 18 18 17 13 10 10 11 13 14 15 14 13 13 13 14 14 15 14 12 9 7 5 3 2 2 3 3 2 3 5 6 7 10 11 11 9 8 8 9 11 14 15 15 15 14 13 13 13 14 14 15 16 16 18 18
9 10 10 10 11 12 14 14 13 14 17 16 14 14 16 16 16 16 15 15 16 20 24 28 29 26 20 17 17 19 18 17 17 18 17 15 11 9 10 13 15 15 14 13 13 13 13 15 16 16 13 9 7 6 4 2 3 4 4 3 3 5 6 7 9 11 11 9 8 8 10 12 13 15 15 14 13 13 13 14 14 14 15 15 16 17 17
9 11 11 11 10 11 13 16 16 17 20 21 19 16 17 17 17 17 17 16 17 18 19 22 26 27 22 17 17 17 18 17 16 16 16 16 14 11 11 13 15 15 15 14 13 13 13 15 17 16 13 10 8 6 4 3 4 6 5 4 3 4 5 7 9 10 11 10 9 8 9 10 12 14 14 14 13 13 14 14 14 14 15 15 15 16 17
9 9 10 11 10 11 13 15 16 18 21 23 21 17 16 17 17 17 17 17 18 19 18 19 23 26 25 22 19 18 16 16 16 15 15 16 16 14 12 13 15 16 16 15 14 13 15 17 17 15 12 10 8 7 5 5 6 6 6 4 3 2 4 6 8 10 11 11 9 8 8 9 11 13 14 14 14 14 14 14 14 14 15 15 15 16 16
9 8 7 7 6 8 10 13 15 16 19 20 19 17 16 15 16 18 18 18 19 19 19 20 22 24 24 24 23 20 17 16 16 16 15 16 16 15 13 13 15 17 18 16 14 14 16 17 16 13 12 10 9 7 6 6 7 7 6 5 3 1 3 5 7 9 11 11 11 10 9 8 9 11 12 13 14 14 14 14 14 14 15 15 15 16 16
Wind_Direction
223 217 242 232 125 187 197 144 206 282 123 145 167 195 193 151 161 238 238 180 203 249 245 201 192 185 185 184 173 168 167 167 171 176 181 185 188 191 192 192 193 194 193 193 192 194 198 200 200 200 198 195 194 193 190 188 187 185 185 189 194 198 202 205 208 212 212 211 213 221 233 241 243 249 259 269 279 287 296 306 312 314 315 314 312 312 312
238 256 287 250 139 140 78 87 174 161 159 181 193 209 192 175 209 230 176 186 229 244 239 189 170 174 181 169 160 163 165 165 171 178 183 186 188 191 193 194 196 198 198 196 195 197 200 202 201 199 196 193 193 192 191 191 192 191 190 195 199 204 209 212 218 224 222 221 227 235 243 250 256 262 268 273 277 287 301 314 320 321 319 317 316 314 313
261 297 6 24 152 135 116 244 201 145 158 207 209 218 190 200 250 246 137 193 259 256 202 141 146 155 159 155 157 164 167 169 174 180 186 188 190 192 194 195 197 200 201 200 199 200 202 203 202 199 196 194 194 196 194 192 192 192 193 198 203 208 213 218 225 230 230 233 238 238 235 243 259 269 274 277 284 298 311 320 322 320 318 316 314 314 314
261 305 38 7 113 100 81 303 301 49 47 147 190 209 194 187 203 123 106 185 268 262 181 136 143 151 153 158 163 164 167 174 179 183 187 190 192 193 195 197 199 201 202 202 203 204 203 204 203 200 197 196 197 199 198 194 193 194 198 202 208 214 220 226 233 238 240 241 242 240 239 247 258 264 269 277 291 306 316 322 321 318 316 315 315 317 321
264 300 32 18 53 63 6 296 285 286 258 234 251 271 241 199 164 131 157 225 259 258 162 142 146 152 158 167 170 168 171 179 185 189 192 195 198 198 198 200 202 203 204 205 206 206 205 205 204 200 199 198 198 198 199 199 198 201 204 207 211 217 226 235 240 242 241 240 243 246 244 244 251 256 266 283 298 308 314 318 318 315 315 314 315 320 328
257 295 354 35 58 74 248 245 204 186 215 233 256 274 260 235 200 172 201 254 285 100 142 167 166 165 170 175 176 176 179 182 186 192 196 199 202 203 203 203 203 205 206 206 208 210 210 210 208 205 205 205 203 204 206 208 209 211 213 214 217 224 231 235 236 237 235 237 244 246 242 243 249 255 270 295 307 308 310 312 312 311 312 309 309 317 326
235 312 26 51 66 227 242 275 274 218 194 179 195 237 252 247 243 228 74 52 115 118 123 155 161 156 157 165 171 179 185 187 187 192 198 202 204 205 205 205 204 205 206 206 208 211 212 215 216 213 212 212 212 213 214 216 220 222 223 223 225 229 231 234 240 245 243 244 248 248 244 244 248 256 274 298 306 302 304 307 308 309 311 310 315 322 326
210 17 65 115 234 259 287 319 310 266 76 96 148 256 261 250 241 195 130 117 123 110 114 129 136 134 133 138 158 180 190 193 192 195 201 204 206 207 207 205 204 205 205 203 204 207 212 219 222 220 219 219 219 222 223 225 228 229 228 228 230 233 238 244 251 252 249 249 251 249 247 248 254 269 284 295 295 294 301 308 312 317 320 321 324 325 323
156 110 130 221 294 308 312 319 340 115 14 279 140 214 261 269 254 166 138 123 123 121 120 125 127 126 119 108 140 184 192 198 202 205 210 209 208 209 208 206 204 203 203 201 203 209 216 220 225 227 226 226 228 230 232 232 232 231 231 233 235 240 246 248 251 254 255 257 256 256 261 268 276 285 287 281 284 292 303 316 324 326 324 323 321 319 318
112 98 82 359 13 240 252 262 179 134 202 210 150 128 281 291 284 147 142 136 143 143 135 133 130 121 105 80 182 184 187 196 202 209 218 216 213 210 206 205 203 202 205 206 209 217 223 226 230 232 232 233 235 237 240 240 237 237 237 237 239 245 250 251 256 262 263 263 266 273 281 285 281 278 273 268 275 287 305 322 327 323 321 321 317 314 315
120 113 124 175 188 213 249 249 205 107 125 178 124 74 302 287 208 147 147 150 162 158 146 142 134 114 108 220 202 177 173 179 188 199 210 214 213 210 205 204 204 204 207 211 215 223 230 233 234 235 238 239 239 242 245 245 244 243 240 240 245 252 254 257 265 268 266 268 276 283 286 274 248 249 249 253 268 288 307 318 320 317 317 317 313 311 311
178 127 124 204 212 233 251 249 270 1 92 121 94 46 272 251 169 154 157 161 170 160 146 141 137 121 151 185 174 161 159 161 170 184 200 208 209 207 202 201 204 208 211 214 220 227 233 237 238 238 241 244 245 247 249 250 250 246 240 243 254 258 257 261 268 270 269 269 269 261 238 212 223 228 235 256 279 296 305 310 313 314 314 313 310 309 310
165 134 135 238 247 247 241 261 307 353 104 104 85 224 231 199 146 152 161 165 166 157 145 140 135 124 129 138 144 148 149 153 160 173 191 201 202 199 197 196 198 204 210 216 224 231 236 238 239 240 243 248 251 251 252 253 254 251 245 249 260 258 252 256 260 255 239 217 195 187 189 199 210 228 257 278 291 298 302 305 308 310 311 310 309 309 311
161 147 136 185 267 244 233 279 323 15 121 137 249 250 233 151 142 147 155 160 158 147 136 126 118 121 127 134 139 142 144 150 156 164 177 186 189 188 186 184 187 197 207 216 224 232 236 238 240 242 245 250 251 251 255 258 258 262 270 274 249 215 185 189 190 174 166 167 166 174 190 203 225 259 281 292 299 299 299 301 305 308 309 309 311 314 319
138 80 82 99 226 227 227 317 338 125 148 202 242 278 291 153 145 146 152 154 145 133 125 119 120 126 132 136 138 138 143 151 155 159 166 171 173 174 174 179 185 194 203 212 221 230 235 238 241 244 247 251 252 253 259 257 250 258 69 101 127 138 140 149 157 156 160 166 171 186 207 232 263 284 296 301 299 295 296 302 307 309 310 313 319 324 326
135 122 157 193 207 207 213 321 222 196 304 283 266 284 257 166 150 152 155 150 138 130 124 123 130 134 134 137 140 140 145 150 150 152 156 159 161 164 168 177 186 195 203 210 218 227 232 236 242 246 250 252 245 236 228 191 167 145 116 120 134 143 145 152 157 159 164 173 198 230 245 259 275 288 296 296 292 293 299 305 308 310 314 319 325 328 328
169 182 215 243 279 320 326 289 278 307 324 297 272 272 227 181 166 162 158 149 140 134 127 128 136 139 138 140 144 142 142 145 146 149 154 158 160 164 168 177 188 197 205 214 220 225 229 232 237 239 233 222 199 165 140 137 137 133 130 132 139 147 153 159 163 169 193 228 247 259 264 269 276 282 285 287 291 297 302 306 310 315 320 324 331 335 337
249 236 246 275 328 338 333 311 300 315 323 282 258 260 222 190 180 172 163 154 147 141 135 134 140 143 143 142 144 146 146 149 152 156 160 162 166 171 176 182 192 200 208 217 222 222 219 212 207 196 170 153 152 142 133 132 132 130 132 137 142 148 154 161 167 183 219 241 251 260 263 265 269 274 283 292 298 302 306 311 319 324 329 335 340 340 335
94 185 249 281 322 320 330 350 343 338 338 284 250 236 216 196 186 178 167 159 153 149 145 140 143 150 149 146 148 153 154 156 160 162 166 170 174 180 185 191 197 203 209 211 209 206 194 176 164 153 138 129 131 132 129 128 129 131 137 143 143 147 152 156 155 157 185 238 248 252 255 264 275 284 294 302 305 307 315 324 330 334 339 342 340 333 330
156 218 260 293 309 311 337 3 358 9 20 324 251 222 210 197 185 178 171 168 168 164 159 155 157 158 156 153 155 159 161 162 165 168 173 178 179 178 181 182 185 192 197 191 183 176 164 150 140 134 129 125 125 126 123 122 124 128 138 142 137 133 133 129 118 98 61 332 271 274 281 289 296 303 308 313 317 324 332 336 340 343 345 340 333 330 331
335 252 279 312 321 339 54 46 20 12 25 23 343 208 199 182 171 171 172 174 178 174 168 173 176 168 163 161 162 164 165 166 168 171 176 176 169 163 161 160 165 176 177 169 162 155 147 139 134 131 126 123 123 120 113 107 107 119 134 134 126 122 118 102 77 59 40 19 357 336 322 319 324 328 329 332 336 338 340 342 346 346 340 333 330 331 333
4 246 263 324 71 230 28 37 32 21 26 46 91 131 151 159 163 170 173 172 175 176 173 178 185 176 169 165 166 167 167 168 169 170 168 163 155 152 152 153 157 162 160 158 155 148 140 136 134 132 128 125 121 113 102 99 105 125 134 130 123 117 99 70 53 41 25 11 2 357 354 354 354 352 342 336 339 341 343 347 347 338 330 329 331 333 335
223 255 257 238 209 327 2 27 32 22 28 59 91 102 122 155 169 177 179 173 171 173 173 176 183 181 172 168 169 168 165 166 165 161 159 156 151 149 150 151 153 153 153 153 150 142 137 136 137 136 133 127 120 112 110 115 121 121 119 119 114 99 72 54 42 25 12 7 9 12 12 10 6 2 353 350 356 4 3 355 343 333 330 332 334 336 338
284 324 279 252 298 334 354 15 23 19 31 60 71 68 88 151 168 174 178 173 170 172 172 171 177 180 173 168 170 168 164 162 160 155 153 152 149 146 148 149 150 151 150 149 147 143 139 140 142 139 134 128 124 126 127 127 123 118 112 106 94 77 59 44 29 15 10 15 20 17 12 8 5 5 11 23 34 33 14 355 345 338 336 337 339 340 341
4 13 356 289 296 311 329 350 7 8 3 11 32 41 52 103 141 150 160 164 167 171 170 166 170 176 172 165 166 167 163 159 157 154 152 150 147 145 145 145 148 151 151 149 148 145 143 144 145 140 133 130 130 131 129 125 122 118 107 85 67 61 53 36 20 14 16 21 19 11 6 6 10 20 30 29 17 3 356 353 350 347 345 344 344 343 342
7 21 8 325 294 293 316 344 3 360 347 337 350 6 18 37 73 123 148 160 165 168 169 166 164 167 169 164 164 166 163 156 154 155 152 149 147 143 142 144 149 152 151 148 146 144 145 145 143 137 132 129 127 126 124 119 114 104 86 65 55 53 44 28 18 17 21 19 12 6 6 15 30 40 33 16 3 355 352 351 351 351 351 348 346 344 342
353 9 0 352 335 325 329 343 5 3 346 318 325 339 354 21 51 117 146 155 157 156 162 167 162 161 165 165 164 165 161 154 153 154 151 148 146 144 142 145 147 148 148 146 145 146 146 143 139 137 132 128 127 126 120 108 95 80 65 56 52 47 37 27 25 28 27 22 17 17 28 43 46 34 15 3 358 353 351 351 351 349 348 347 346 345 343
336 346 343 4 19 11 356 327 354 9 359 309 317 324 332 25 75 133 150 155 154 151 156 164 163 161 163 165 164 163 158 153 152 153 151 150 150 148 146 145 146 148 148 147 146 146 145 141 139 137 132 126 125 123 111 94 83 72 60 56 56 48 40 37 40 42 38 32 30 36 47 48 34 16 3 357 354 351 351 350 348 345 344 345 345 345 344
304 300 289 291 340 3 5 342 335 4 10 344 208 198 187 144 143 156 162 160 157 153 153 158 162 162 163 165 164 159 155 154 155 154 154 155 155 154 152 150 150 151 151 150 149 147 144 141 137 133 128 123 119 112 98 87 83 80 73 69 62 53 47 47 47 45 41 37 36 42 44 32 14 3 358 354 351 349 349 348 346 344 344 344 345 346 348
316 292 275 268 278 316 347 346 315 325 322 249 182 164 164 165 161 162 165 164 161 158 156 157 162 163 161 160 159 156 154 156 156 156 157 160 161 159 158 157 156 155 156 155 153 151 147 141 133 127 125 120 109 97 88 81 83 91 93 85 69 58 56 55 50 45 41 37 36 36 29 11 359 357 355 352 349 348 348 348 345 345 346 346 347 349 351
327 292 265 256 253 268 296 285 203 204 219 218 192 173 168 169 166 165 168 168 164 161 159 158 160 161 159 157 156 154 154 156 157 158 161 164 165 164 163 162 160 159 158 159 158 156 152 140 126 120 119 113 102 93 82 69 78 93 98 92 75 64 64 61 51 39 33 31 28 21 11 1 356 354 352 351 348 347 347 347 346 346 348 349 350 352 353
331 308 267 253 250 252 258 249 221 204 198 200 202 191 178 173 173 173 171 167 164 162 159 158 160 161 159 156 155 155 156 157 158 161 164 167 166 164 162 161 160 156 156 158 159 156 148 134 121 114 108 103 101 92 67 52 73 94 105 106 90 79 71 60 45 30 26 25 18 8 4 0 356 352 350 351 349 345 346 347 348 348 351 351 351 354 355
316 299 259 245 244 243 244 241 227 204 195 197 206 203 193 189 189 183 171 164 162 160 156 158 163 164 161 158 158 159 160 160 162 164 165 163 159 154 154 157 157 152 149 150 149 144 138 131 123 111 96 93 96 74 40 47 81 106 121 120 103 88 64 38 25 20 21 19 10 3 3 360 355 353 353 351 347 344 346 349 350 351 352 353 353 354 356
303 288 263 255 259 258 247 231 210 193 188 193 200 199 200 201 195 180 166 160 159 157 157 162 168 168 165 163 164 165 166 167 166 165 161 156 152 149 150 153 154 150 147 147 144 142 142 139 130 113 95 98 99 34 37 75 104 116 117 109 96 77 41 23 17 13 11 8 3 5 5 360 356 356 355 349 345 346 350 354 354 352 353 354 353 354 356
295 279 258 256 269 274 257 231 218 207 198 198 195 190 196 199 187 167 156 157 159 159 161 166 169 171 172 172 171 173 174 171 165 160 157 154 152 152 152 155 156 154 150 147 146 145 146 144 138 126 117 127 139 57 91 112 116 112 107 97 81 57 34 23 16 8 1 357 0 5 3 358 358 359 355 348 347 351 355 357 355 353 354 355 353 353 356
284 266 245 245 263 269 254 234 231 224 216 209 195 179 185 190 172 151 151 167 168 165 169 174 175 177 179 178 176 175 173 168 162 159 157 156 156 156 156 157 159 159 154 150 148 149 153 154 150 147 152 159 149 127 128 127 117 107 98 84 65 49 35 24 15 6 356 353 360 3 0 358 0 0 354 350 352 356 359 358 356 354 355 355 353 354 356
272 254 235 240 260 262 246 233 227 213 205 203 191 180 186 188 167 153 164 177 172 169 175 180 180 181 183 181 178 172 167 165 164 163 162 161 161 162 163 163 166 168 167 160 154 155 159 162 162 163 163 147 130 131 133 124 110 98 86 73 61 48 34 22 13 3 357 355 359 0 359 359 360 358 354 353 357 359 360 358 356 355 355 355 354 355 356
257 241 226 233 254 254 232 216 208 197 195 193 187 184 193 192 175 171 178 176 168 170 178 182 184 186 185 182 178 173 167 167 169 168 167 168 167 168 171 173 175 178 176 167 161 161 165 168 170 167 156 138 133 137 135 121 107 96 80 68 62 50 34 22 11 3 1 358 356 356 357 357 357 356 355 356 358 359 359 358 356 355 355 356 356 356 356
238 235 226 228 240 236 211 193 188 194 197 193 182 179 184 181 175 181 186 175 167 172 178 181 185 188 185 182 182 179 174 173 174 172 172 173 171 172 175 174 171 174 172 166 165 167 169 171 172 165 151 143 142 144 137 121 110 102 83 67 60 48 32 20 9 5 3 358 353 354 353 352 354 357 357 358 359 359 358 358 358 357 356 357 358 357 357
231 234 231 228 230 225 214 208 202 197 198 197 190 186 185 176 174 185 192 182 172 174 177 180 185 186 184 183 185 183 178 177 177 175 174 174 173 174 175 169 164 165 167 167 170 172 170 171 174 167 155 151 155 155 143 121 108 105 90 63 38 29 25 18 11 9 5 358 354 353 351 351 356 360 360 359 0 0 360 1 1 359 358 359 359 358 358
233 237 234 229 225 220 214 217 217 205 201 203 207 209 209 201 190 190 193 186 179 176 178 183 187 186 183 183 184 182 179 177 176 176 177 178 176 175 174 171 168 169 170 171 175 173 170 172 176 170 160 161 167 166 149 119 106 107 91 50 24 18 18 14 10 10 7 2 357 354 352 354 360 3 3 4 4 3 3 4 3 0 359 360 0 360 360
235 239 231 221 215 210 206 210 215 208 204 207 211 216 219 218 210 199 192 186 182 180 183 189 190 188 186 185 185 183 180 178 176 176 179 181 180 180 182 182 181 178 176 176 174 170 169 174 178 173 168 171 178 182 178 152 130 120 80 41 25 20 16 8 4 5 7 4 359 356 356 0 3 5 7 9 9 7 6 5 4 2 1 1 1 2 2
224 225 222 217 214 213 214 214 211 205 201 203 206 209 212 212 208 200 192 189 187 185 186 189 190 191 192 191 188 186 185 182 179 177 178 177 175 178 189 197 195 186 180 177 172 168 170 175 176 174 172 174 179 188 197 200 183 149 82 32 22 23 18 3 357 360 4 5 0 358 360 3 6 8 11 12 10 9 7 6 4 3 3 2 4 4 4
226 220 220 224 227 231 233 229 222 216 207 200 201 206 210 211 208 203 197 193 193 192 191 190 190 192 195 196 194 192 190 186 182 180 178 176 174 174 181 191 195 190 185 180 174 171 173 176 175 171 167 164 168 175 184 190 195 182 126 29 25 31 24 4 356 357 1 2 2 1 2 5 8 11 14 13 10 9 9 7 4 4 3 4 6 6 5
243 232 229 229 231 236 240 239 236 232 227 216 210 211 213 214 216 213 206 201 200 200 198 195 194 195 198 199 199 197 195 193 189 185 183 183 182 182 182 183 185 189 191 187 181 176 176 177 174 169 165 163 165 162 137 106 96 105 111 69 39 40 29 8 358 358 359 0 3 5 5 8 14 17 16 13 10 10 11 9 6 4 5 6 8 7 5
261 246 237 229 224 226 233 238 239 238 237 231 220 215 213 215 218 219 214 209 207 206 203 200 199 204 209 208 204 200 199 199 196 193 191 192 191 191 190 185 181 184 190 191 186 181 178 176 175 173 170 168 167 151 107 88 89 98 109 102 46 42 33 13 1 360 360 0 5 11 15 18 21 21 18 14 13 12 11 9 8 6 6 7 8 8 6
276 256 243 234 227 223 225 232 239 242 240 233 221 213 209 207 208 213 216 212 209 209 208 204 203 210 217 217 211 207 204 202 198 196 195 191 188 193 197 191 182 179 184 189 187 182 177 175 175 176 176 177 175 160 122 95 98 113 130 128 53 48 38 18 6 3 1 2 10 23 30 28 25 22 19 16 14 11 8 8 9 9 8 9 10 9 7
286 265 250 244 240 234 231 238 254 261 255 244 228 212 204 199 198 203 211 211 209 209 209 207 205 206 208 206 204 205 206 206 205 203 197 187 180 188 198 196 186 179 180 184 185 181 178 177 177 179 183 186 184 178 165 125 118 139 154 140 75 59 44 24 13 9 8 11 21 32 33 30 26 22 19 16 13 9 7 8 10 11 12 12 11 9 9
296 273 259 254 252 244 235 234 248 263 265 257 241 219 205 199 198 200 206 211 212 211 210 210 210 208 201 190 188 194 198 203 209 210 203 194 188 189 197 199 194 187 183 185 186 183 181 180 180 183 189 193 189 186 188 168 144 153 160 143 92 65 48 33 23 17 15 19 26 30 28 25 22 20 17 14 10 7 6 8 12 15 15 13 12 11 10
309 285 269 261 258 250 234 226 232 248 258 256 245 225 209 203 203 203 205 209 212 213 213 214 215 213 205 192 186 190 195 200 203 203 202 201 199 197 198 200 198 192 189 190 189 186 182 181 181 185 191 196 193 189 185 171 158 160 160 146 109 69 46 38 31 24 20 21 24 23 21 19 18 16 14 12 9 7 6 9 14 17 16 14 13 13 13
324 298 275 264 261 255 240 230 233 246 253 253 244 229 215 210 210 210 209 209 211 212 212 213 215 217 215 206 196 193 196 197 192 191 196 201 201 198 200 202 199 194 192 192 191 187 183 182 184 188 193 193 189 185 180 173 169 167 162 150 129 70 39 37 34 28 24 25 27 23 16 15 16 15 12 10 10 9 9 11 16 19 18 16 14 14 15
326 304 277 260 258 255 239 224 223 235 249 255 248 235 224 219 219 217 215 214 213 212 211 211 213 216 214 206 198 197 199 196 188 186 192 196 194 194 200 202 198 194 193 192 190 187 186 187 189 191 191 187 185 185 181 175 174 173 170 166 160 69 31 36 36 30 26 29 34 32 24 20 20 16 10 10 12 13 13 14 16 18 19 17 15 15 18
Height
1478 1477 1476 1476 1479 1480 1479 1478 1477 1476 1479 1482 1481 1482 1482 1483 1488 1488 1481 1482 1482 1472 1466 1469 1470 1472 1473 1473 1475 1478 1480 1483 1485 1488 1490 1491 1493 1496 1498 1501 1503 1505 1508 1510 1512 1515 1516 1518 1519 1520 1522 1523 1524 1525 1526 1528 1529 1530 1532 1533 1534 1535 1536 1537 1538 1539 1541 1541 1542 1543 1543 1543 1543 1542 1542 1542 1541 1541 1540 1539 1539 1538 1537 1536 1535 1534 1534
1476 1476 1477 1477 1477 1477 1477 1478 1478 1477 1478 1478 1478 1479 1480 1480 1479 1478 1479 1481 1476 1467 1465 1467 1467 1471 1473 1474 1476 1479 1481 1483 1484 1486 1488 1490 1492 1495 1497 1500 1502 1504 1507 1509 1511 1514 1515 1517 1519 1519 1521 1522 1523 1525 1526 1528 1529 1531 1532 1533 1535 1536 1537 1539 1540 1541 1542 1542 1543 1543 1543 1543 1543 1542 1542 1541 1541 1540 1540 1539 1538 1536 1535 1535 1534 1533 1532
1478 1477 1478 1478 1474 1474 1478 1479 1479 1479 1479 1479 1479 1480 1481 1481 1479 1477 1480 1482 1474 1465 1464 1465 1466 1469 1472 1474 1476 1478 1480 1482 1483 1485 1487 1489 1491 1494 1496 1499 1501 1503 1506 1509 1511 1513 1514 1516 1518 1519 1520 1521 1523 1525 1526 1528 1530 1531 1533 1534 1536 1537 1539 1540 1541 1542 1542 1542 1543 1543 1543 1543 1542 1542 1541 1541 1540 1540 1539 1537 1536 1535 1534 1533 1532 1531 1530
1481 1477 1479 1480 1474 1474 1478 1478 1477 1478 1478 1478 1479 1478 1477 1478 1478 1479 1482 1481 1472 1464 1463 1465 1465 1467 1469 1472 1475 1477 1480 1482 1482 1483 1485 1488 1490 1493 1495 1498 1500 1502 1505 1507 1510 1512 1513 1515 1517 1518 1520 1521 1523 1525 1526 1528 1530 1532 1533 1535 1536 1538 1539 1540 1541 1541 1542 1542 1542 1542 1542 1542 1541 1541 1540 1540 1539 1539 1537 1536 1535 1534 1533 1532 1530 1529 1528
1480 1478 1482 1480 1476 1481 1485 1478 1474 1475 1476 1476 1476 1474 1473 1474 1474 1476 1477 1473 1467 1464 1465 1465 1466 1467 1468 1470 1471 1474 1478 1480 1481 1483 1484 1487 1489 1491 1494 1497 1499 1501 1504 1506 1509 1511 1513 1515 1516 1518 1520 1521 1523 1524 1526 1529 1530 1532 1533 1534 1536 1537 1539 1540 1541 1541 1541 1542 1542 1542 1541 1541 1540 1540 1540 1539 1539 1538 1536 1535 1534 1533 1532 1531 1529 1528 1527
1480 1480 1480 1479 1486 1494 1488 1474 1469 1471 1472 1473 1474 1472 1471 1471 1470 1470 1469 1467 1466 1466 1466 1466 1466 1465 1466 1467 1469 1472 1475 1478 1480 1483 1485 1487 1489 1491 1494 1496 1499 1501 1504 1506 1509 1511 1513 1515 1516 1518 1520 1521 1523 1525 1527 1529 1530 1531 1533 1534 1535 1536 1537 1537 1538 1538 1539 1539 1540 1540 1539 1538 1538 1538 1539 1539 1538 1537 1536 1534 1533 1532 1531 1530 1529 1527 1526
1483 1481 1480 1489 1500 1493 1475 1466 1467 1467 1467 1469 1470 1470 1469 1468 1466 1466 1467 1467 1465 1463 1464 1465 1465 1465 1466 1469 1472 1474 1476 1477 1480 1483 1485 1487 1489 1491 1493 1496 1499 1501 1504 1506 1509 1511 1513 1515 1516 1518 1520 1521 1524 1526 1527 1528 1530 1531 1532 1533 1534 1534 1534 1534 1534 1534 1535 1535 1536 1537 1537 1537 1536 1537 1537 1537 1537 1537 1535 1534 1532 1531 1530 1529 1528 1527 1525
1485 1484 1486 1494 1495 1479 1467 1467 1467 1465 1467 1469 1470 1471 1468 1465 1463 1463 1465 1466 1464 1462 1463 1464 1466 1467 1468 1471 1474 1476 1478 1479 1481 1483 1485 1486 1488 1491 1493 1495 1499 1501 1504 1507 1509 1511 1513 1515 1516 1518 1520 1522 1523 1525 1526 1528 1529 1530 1531 1532 1531 1532 1533 1533 1534 1534 1534 1534 1535 1536 1536 1536 1536 1536 1535 1535 1536 1536 1534 1533 1532 1530 1529 1528 1527 1526 1524
1487 1488 1488 1487 1484 1478 1473 1470 1467 1467 1469 1469 1470 1473 1469 1462 1460 1461 1462 1463 1464 1463 1463 1464 1466 1467 1469 1474 1477 1477 1478 1481 1482 1484 1485 1487 1489 1491 1493 1496 1499 1502 1505 1507 1509 1511 1513 1515 1517 1518 1520 1522 1523 1524 1526 1527 1528 1529 1529 1529 1530 1533 1534 1534 1534 1534 1535 1535 1535 1535 1535 1535 1535 1535 1534 1534 1535 1535 1533 1532 1531 1530 1528 1527 1526 1525 1523
1488 1489 1489 1489 1491 1488 1478 1468 1466 1466 1466 1464 1467 1472 1469 1461 1458 1458 1459 1461 1463 1463 1463 1465 1464 1466 1472 1478 1478 1476 1478 1480 1482 1484 1486 1488 1490 1492 1494 1497 1499 1502 1505 1507 1509 1512 1513 1515 1516 1518 1520 1521 1522 1524 1525 1525 1526 1527 1528 1529 1531 1534 1534 1533 1533 1533 1533 1534 1534 1534 1534 1534 1534 1534 1533 1533 1534 1533 1532 1531 1530 1529 1527 1526 1525 1523 1522
1486 1485 1487 1492 1493 1484 1471 1464 1463 1464 1464 1462 1466 1474 1472 1462 1457 1458 1458 1460 1462 1461 1460 1461 1462 1467 1475 1479 1475 1474 1477 1479 1481 1484 1486 1488 1490 1493 1495 1498 1500 1503 1505 1507 1509 1511 1512 1514 1516 1517 1519 1520 1521 1522 1523 1524 1525 1525 1526 1529 1531 1533 1532 1531 1531 1531 1531 1532 1532 1532 1532 1532 1532 1532 1532 1532 1532 1532 1531 1530 1529 1527 1526 1525 1524 1522 1521
1484 1483 1484 1487 1484 1474 1466 1462 1461 1463 1462 1461 1471 1483 1476 1460 1456 1459 1459 1460 1462 1460 1458 1459 1461 1466 1472 1473 1472 1473 1476 1478 1481 1484 1485 1488 1490 1493 1495 1498 1500 1503 1505 1507 1509 1510 1512 1513 1515 1516 1518 1519 1520 1521 1522 1523 1524 1523 1525 1529 1530 1530 1530 1530 1529 1530 1530 1531 1531 1531 1531 1531 1531 1531 1531 1531 1531 1531 1530 1529 1528 1526 1525 1523 1522 1521 1520
1483 1484 1484 1484 1479 1469 1462 1459 1458 1459 1461 1467 1479 1482 1468 1456 1456 1459 1459 1461 1462 1460 1458 1459 1461 1464 1466 1468 1470 1473 1475 1478 1481 1483 1486 1488 1491 1493 1496 1498 1500 1502 1504 1506 1508 1509 1511 1512 1514 1516 1517 1518 1519 1520 1521 1523 1523 1522 1524 1528 1528 1527 1528 1528 1528 1528 1529 1529 1530 1530 1531 1531 1531 1531 1531 1531 1530 1530 1529 1528 1526 1525 1523 1522 1521 1519 1518
1482 1482 1482 1485 1480 1465 1458 1458 1457 1457 1465 1474 1476 1467 1458 1456 1457 1457 1459 1462 1461 1459 1460 1460 1461 1463 1465 1467 1470 1473 1476 1479 1481 1483 1486 1488 1490 1493 1495 1497 1500 1502 1504 1505 1507 1509 1510 1512 1513 1515 1516 1517 1518 1519 1521 1522 1522 1521 1523 1525 1525 1524 1526 1527 1527 1527 1528 1529 1529 1530 1530 1530 1530 1530 1530 1530 1529 1528 1527 1526 1525 1523 1522 1520 1519 1518 1517
1483 1485 1486 1488 1480 1463 1455 1458 1457 1457 1463 1468 1464 1459 1459 1459 1455 1456 1460 1461 1460 1460 1460 1461 1463 1465 1467 1469 1471 1473 1476 1479 1481 1484 1486 1489 1491 1493 1495 1497 1500 1502 1503 1505 1507 1509 1510 1512 1513 1514 1515 1516 1517 1519 1520 1521 1521 1522 1523 1524 1524 1524 1525 1526 1527 1528 1528 1529 1529 1530 1530 1530 1530 1529 1529 1528 1527 1527 1526 1525 1523 1522 1520 1519 1518 1517 1516
1477 1482 1480 1475 1467 1458 1455 1458 1458 1457 1458 1458 1457 1458 1460 1458 1456 1457 1459 1460 1460 1460 1459 1461 1464 1466 1468 1471 1472 1474 1477 1479 1482 1485 1488 1490 1492 1493 1495 1498 1500 1502 1504 1506 1507 1509 1510 1511 1513 1514 1515 1516 1517 1518 1519 1520 1521 1522 1523 1524 1524 1525 1526 1526 1527 1528 1528 1529 1529 1529 1529 1529 1529 1528 1528 1527 1526 1525 1524 1523 1522 1520 1519 1518 1517 1516 1515
1467 1468 1465 1459 1456 1456 1457 1456 1456 1456 1456 1456 1457 1457 1458 1458 1458 1458 1458 1460 1461 1461 1461 1463 1465 1466 1469 1471 1473 1476 1478 1480 1484 1487 1489 1491 1492 1494 1496 1498 1500 1502 1504 1506 1508 1509 1510 1512 1513 1514 1515 1516 1516 1517 1519 1520 1521 1522 1523 1524 1525 1526 1526 1527 1528 1528 1528 1529 1529 1529 1529 1529 1528 1528 1527 1526 1525 1524 1523 1521 1520 1519 1519 1518 1517 1515 1514
1463 1460 1457 1455 1455 1456 1456 1455 1456 1456 1455 1455 1456 1456 1457 1458 1459 1459 1459 1460 1461 1462 1463 1464 1465 1468 1469 1471 1475 1477 1479 1482 1485 1488 1490 1492 1494 1495 1497 1499 1500 1502 1504 1506 1508 1509 1511 1512 1513 1514 1515 1516 1517 1518 1519 1520 1522 1523 1524 1524 1525 1526 1527 1527 1528 1528 1528 1528 1528 1528 1528 1528 1527 1527 1526 1525 1524 1522 1521 1521 1520 1519 1518 1517 1516 1514 1512
1463 1461 1457 1455 1455 1455 1455 1455 1455 1455 1455 1455 1455 1456 1457 1458 1459 1460 1461 1461 1462 1464 1465 1465 1467 1469 1471 1473 1476 1478 1481 1483 1486 1489 1491 1493 1495 1496 1498 1499 1501 1503 1505 1507 1508 1510 1511 1512 1513 1514 1515 1517 1518 1519 1520 1521 1523 1524 1525 1525 1526 1527 1527 1527 1528 1528 1528 1528 1528 1528 1527 1527 1526 1525 1524 1523 1522 1521 1521 1520 1519 1518 1517 1516 1514 1513 1511
1462 1460 1456 1454 1454 1454 1454 1454 1454 1455 1456 1455 1455 1455 1456 1457 1459 1461 1461 1462 1463 1464 1465 1467 1469 1470 1473 1475 1477 1479 1482 1485 1487 1490 1492 1494 1496 1498 1499 1501 1503 1504 1505 1507 1509 1510 1511 1513 1514 1515 1516 1518 1519 1521 1522 1523 1524 1525 1525 1526 1526 1527 1527 1528 1528 1528 1528 1528 1527 1527 1526 1526 1525 1524 1523 1522 1521 1521 1520 1519 1518 1517 1516 1514 1513 1512 1510
1460 1458 1455 1453 1453 1453 1454 1455 1455 1455 1455 1455 1455 1456 1456 1458 1460 1461 1462 1463 1463 1465 1467 1468 1470 1472 1474 1476 1478 1480 1483 1485 1488 1491 1493 1495 1498 1499 1501 1502 1504 1505 1506 1508 1509 1511 1512 1514 1515 1517 1518 1519 1521 1522 1523 1524 1525 1525 1526 1526 1527 1527 1527 1527 1527 1527 1527 1527 1526 1526 1525 1524 1523 1523 1522 1521 1521 1520 1519 1518 1517 1516 1515 1513 1512 1511 1509
1462 1460 1456 1454 1455 1456 1456 1456 1456 1456 1456 1457 1457 1457 1458 1459 1461 1462 1462 1463 1464 1466 1468 1469 1470 1473 1475 1477 1479 1482 1484 1487 1489 1492 1494 1497 1499 1500 1502 1504 1505 1507 1508 1509 1510 1512 1513 1515 1516 1518 1519 1520 1521 1523 1524 1525 1525 1526 1526 1527 1527 1527 1527 1527 1527 1527 1526 1526 1525 1525 1524 1523 1523 1522 1521 1521 1520 1519 1519 1518 1517 1515 1514 1512 1511 1510 1508
1461 1457 1454 1454 1456 1456 1456 1457 1458 1458 1458 1458 1459 1459 1460 1460 1461 1462 1463 1464 1465 1467 1468 1470 1472 1473 1475 1478 1481 1483 1485 1489 1491 1493 1496 1498 1499 1501 1503 1505 1506 1508 1510 1511 1512 1513 1514 1516 1518 1519 1520 1521 1522 1523 1524 1525 1526 1527 1527 1527 1527 1527 1527 1527 1526 1526 1526 1525 1524 1524 1523 1523 1522 1522 1521 1520 1519 1519 1518 1518 1516 1515 1513 1512 1511 1509 1507
1458 1456 1455 1456 1456 1455 1456 1457 1458 1459 1459 1460 1461 1461 1462 1462 1463 1464 1465 1465 1466 1468 1469 1471 1473 1475 1477 1479 1482 1485 1487 1490 1493 1495 1498 1500 1501 1503 1505 1506 1508 1509 1511 1512 1513 1514 1515 1517 1518 1519 1520 1521 1522 1523 1524 1525 1526 1527 1527 1527 1527 1527 1527 1527 1526 1525 1525 1524 1523 1523 1523 1522 1522 1521 1521 1520 1519 1519 1518 1517 1516 1515 1513 1512 1511 1509 1506
1458 1457 1457 1457 1457 1457 1457 1457 1457 1458 1459 1461 1462 1462 1463 1464 1464 1464 1466 1467 1468 1469 1471 1472 1475 1477 1479 1481 1484 1487 1489 1492 1494 1497 1499 1501 1503 1505 1506 1508 1509 1510 1512 1513 1514 1515 1517 1518 1519 1520 1521 1522 1523 1524 1525 1526 1527 1527 1527 1527 1527 1527 1526 1526 1525 1525 1524 1524 1523 1523 1522 1522 1521 1521 1520 1520 1519 1518 1517 1517 1516 1515 1513 1511 1510 1508 1506
1459 1459 1459 1459 1458 1458 1458 1458 1458 1459 1460 1461 1462 1463 1464 1465 1465 1466 1467 1469 1470 1471 1473 1474 1476 1479 1482 1483 1486 1488 1491 1493 1496 1498 1500 1502 1504 1506 1508 1510 1511 1512 1513 1514 1515 1517 1518 1519 1520 1521 1521 1522 1523 1524 1525 1526 1527 1528 1527 1527 1527 1527 1526 1526 1525 1525 1524 1524 1523 1523 1522 1522 1521 1521 1520 1520 1518 1517 1516 1515 1514 1513 1512 1511 1509 1507 1505
1460 1460 1460 1460 1460 1459 1460 1460 1460 1461 1461 1462 1463 1464 1466 1467 1468 1468 1470 1471 1472 1473 1475 1476 1478 1480 1483 1485 1487 1490 1492 1494 1497 1499 1501 1503 1505 1508 1510 1511 1512 1513 1514 1515 1517 1518 1519 1520 1521 1522 1522 1523 1524 1525 1526 1527 1527 1527 1527 1527 1527 1526 1526 1526 1525 1525 1524 1524 1523 1522 1522 1522 1521 1521 1520 1519 1518 1517 1516 1514 1513 1512 1511 1510 1508 1506 1504
1460 1461 1461 1462 1462 1462 1461 1462 1462 1463 1463 1464 1464 1466 1467 1468 1469 1470 1471 1472 1473 1474 1476 1478 1480 1481 1484 1486 1489 1491 1494 1496 1498 1501 1503 1505 1507 1509 1511 1512 1513 1514 1515 1516 1518 1519 1520 1521 1522 1522 1523 1524 1525 1526 1527 1527 1527 1527 1527 1527 1527 1527 1526 1526 1525 1525 1525 1524 1523 1522 1522 1522 1522 1521 1520 1519 1518 1517 1516 1515 1514 1512 1510 1508 1507 1505 1503
1461 1462 1462 1463 1463 1463 1463 1463 1464 1464 1464 1465 1466 1467 1468 1469 1471 1472 1472 1473 1474 1475 1477 1479 1481 1483 1485 1487 1489 1492 1494 1497 1500 1502 1504 1506 1508 1510 1512 1513 1514 1515 1516 1517 1519 1520 1521 1522 1522 1523 1524 1525 1526 1526 1527 1527 1527 1527 1527 1527 1527 1527 1526 1526 1526 1525 1525 1524 1523 1523 1523 1522 1522 1521 1520 1519 1518 1517 1516 1515 1513 1511 1509 1507 1505 1503 1501
1462 1462 1463 1463 1464 1464 1464 1464 1465 1465 1466 1466 1467 1468 1469 1470 1471 1472 1473 1474 1475 1476 1477 1480 1482 1484 1486 1488 1491 1493 1495 1498 1500 1503 1505 1507 1509 1511 1512 1513 1514 1515 1517 1518 1519 1520 1521 1522 1523 1524 1525 1525 1526 1526 1527 1527 1527 1527 1527 1527 1527 1526 1526 1526 1526 1525 1525 1524 1523 1523 1523 1523 1522 1521 1520 1519 1518 1517 1516 1514 1512 1510 1508 1506 1504 1501 1499
1461 1462 1463 1463 1464 1464 1465 1465 1466 1466 1466 1467 1468 1468 1469 1470 1471 1472 1473 1474 1476 1477 1479 1481 1483 1485 1487 1490 1492 1494 1496 1499 1502 1504 1507 1509 1510 1512 1513 1513 1514 1515 1517 1518 1519 1521 1522 1522 1523 1524 1525 1525 1526 1526 1527 1527 1527 1526 1526 1526 1526 1526 1526 1526 1526 1525 1524 1524 1523 1523 1523 1522 1522 1521 1520 1519 1518 1516 1515 1513 1511 1509 1508 1505 1503 1501 1499
1461 1461 1462 1463 1464 1465 1465 1465 1466 1466 1467 1467 1468 1469 1469 1470 1471 1472 1473 1474 1476 1478 1480 1483 1485 1487 1489 1491 1494 1496 1498 1500 1503 1505 1507 1509 1511 1512 1513 1515 1516 1517 1518 1519 1520 1521 1522 1523 1524 1524 1525 1525 1526 1526 1527 1527 1526 1526 1526 1526 1526 1526 1526 1526 1526 1525 1524 1523 1523 1523 1522 1522 1521 1520 1519 1518 1517 1516 1514 1512 1511 1509 1507 1505 1503 1501 1499
1461 1461 1461 1462 1463 1464 1464 1465 1466 1467 1467 1468 1469 1469 1470 1471 1471 1472 1473 1475 1477 1480 1482 1485 1487 1489 1491 1493 1495 1497 1499 1501 1503 1506 1508 1509 1511 1513 1514 1516 1517 1518 1519 1520 1520 1521 1522 1523 1524 1524 1525 1525 1526 1526 1526 1526 1526 1526 1526 1526 1526 1526 1526 1526 1525 1524 1523 1523 1522 1522 1522 1521 1520 1519 1518 1518 1516 1515 1514 1512 1510 1508 1507 1505 1503 1501 1499
1460 1460 1461 1462 1463 1464 1464 1464 1465 1466 1467 1468 1468 1469 1470 1472 1472 1473 1474 1476 1479 1482 1484 1487 1489 1491 1493 1495 1497 1498 1500 1501 1503 1505 1507 1509 1511 1513 1514 1516 1518 1518 1519 1520 1520 1521 1522 1523 1524 1524 1525 1525 1525 1526 1526 1526 1526 1526 1526 1526 1526 1526 1526 1526 1525 1524 1523 1523 1522 1522 1521 1521 1520 1519 1518 1517 1516 1515 1513 1511 1510 1508 1507 1505 1503 1502 1500
1459 1459 1460 1461 1462 1463 1463 1463 1464 1464 1464 1465 1466 1467 1469 1471 1474 1476 1478 1480 1482 1484 1486 1488 1491 1493 1495 1496 1498 1499 1500 1502 1503 1505 1507 1509 1511 1513 1514 1516 1517 1518 1519 1519 1520 1521 1522 1523 1523 1524 1524 1525 1525 1525 1525 1526 1526 1526 1526 1526 1526 1526 1526 1526 1525 1524 1523 1522 1522 1522 1521 1520 1519 1519 1518 1517 1516 1514 1513 1511 1510 1508 1506 1505 1503 1502 1500
1458 1458 1459 1460 1461 1462 1462 1462 1462 1463 1462 1463 1465 1467 1469 1471 1476 1480 1482 1483 1484 1485 1486 1487 1489 1492 1494 1496 1498 1499 1501 1502 1504 1505 1507 1509 1511 1513 1515 1516 1517 1517 1518 1519 1519 1520 1522 1522 1523 1524 1524 1525 1525 1525 1526 1526 1526 1526 1526 1527 1526 1526 1526 1526 1525 1524 1523 1523 1522 1521 1520 1520 1519 1518 1517 1517 1515 1514 1512 1511 1510 1508 1507 1505 1503 1502 1500
1456 1457 1458 1460 1460 1461 1462 1462 1461 1462 1462 1463 1465 1468 1469 1471 1477 1481 1482 1482 1484 1486 1486 1486 1488 1491 1494 1497 1498 1500 1501 1503 1505 1506 1508 1510 1511 1513 1514 1516 1516 1517 1517 1518 1519 1520 1521 1522 1523 1524 1524 1525 1525 1526 1526 1526 1527 1527 1527 1527 1527 1527 1527 1526 1525 1524 1523 1523 1522 1521 1520 1519 1519 1518 1517 1516 1515 1513 1512 1511 1510 1509 1507 1506 1504 1502 1500
1455 1456 1457 1459 1460 1460 1461 1461 1461 1462 1463 1464 1466 1468 1469 1472 1476 1478 1478 1480 1483 1486 1486 1488 1490 1492 1495 1498 1500 1501 1503 1504 1506 1507 1509 1510 1511 1513 1514 1515 1516 1516 1517 1517 1518 1519 1520 1521 1523 1524 1524 1525 1525 1526 1526 1527 1527 1527 1527 1527 1527 1527 1527 1526 1526 1525 1523 1523 1522 1521 1520 1519 1519 1518 1517 1516 1515 1514 1513 1511 1510 1509 1508 1506 1505 1503 1501
1454 1456 1457 1458 1459 1460 1460 1461 1462 1463 1464 1465 1467 1469 1470 1473 1475 1477 1477 1479 1482 1484 1486 1488 1490 1492 1494 1497 1500 1501 1503 1504 1506 1507 1509 1510 1511 1513 1514 1515 1516 1516 1517 1517 1518 1519 1520 1521 1522 1523 1524 1525 1525 1526 1527 1527 1528 1528 1528 1528 1527 1527 1527 1526 1526 1525 1524 1523 1522 1521 1520 1519 1518 1517 1517 1516 1515 1514 1513 1512 1511 1510 1508 1507 1505 1503 1501
1454 1455 1456 1457 1458 1459 1460 1461 1462 1463 1464 1466 1467 1469 1470 1473 1475 1476 1477 1479 1481 1483 1486 1488 1490 1491 1494 1496 1498 1501 1503 1504 1505 1507 1508 1510 1511 1513 1514 1515 1516 1516 1517 1517 1518 1519 1520 1521 1522 1523 1524 1525 1526 1527 1527 1528 1528 1528 1528 1528 1528 1528 1527 1527 1526 1525 1524 1523 1522 1521 1520 1519 1518 1517 1517 1516 1515 1514 1513 1513 1511 1510 1509 1507 1506 1504 1502
1453 1455 1456 1457 1458 1458 1459 1460 1462 1463 1464 1466 1467 1468 1470 1471 1473 1475 1477 1479 1481 1484 1486 1488 1489 1491 1492 1495 1497 1500 1502 1503 1505 1507 1508 1509 1511 1512 1513 1514 1515 1516 1517 1518 1518 1520 1520 1521 1522 1523 1523 1524 1526 1527 1527 1528 1528 1528 1528 1528 1528 1528 1528 1527 1526 1525 1524 1523 1522 1521 1520 1519 1518 1517 1517 1516 1516 1515 1514 1513 1512 1511 1509 1508 1506 1504 1503
1453 1455 1456 1456 1457 1458 1459 1460 1461 1462 1463 1465 1466 1467 1469 1470 1472 1474 1476 1478 1481 1483 1485 1487 1489 1490 1492 1495 1497 1500 1501 1503 1505 1506 1508 1509 1510 1512 1513 1513 1514 1515 1516 1518 1519 1520 1521 1521 1522 1522 1523 1524 1526 1527 1527 1528 1528 1528 1528 1528 1528 1528 1528 1527 1527 1525 1524 1523 1522 1521 1520 1519 1518 1518 1517 1517 1516 1515 1514 1514 1512 1511 1510 1508 1507 1505 1503
1453 1454 1456 1457 1457 1458 1459 1460 1461 1462 1463 1464 1466 1467 1468 1469 1471 1474 1475 1477 1479 1481 1483 1485 1488 1490 1492 1494 1497 1499 1501 1502 1504 1506 1507 1509 1510 1511 1512 1513 1513 1515 1516 1517 1519 1520 1520 1521 1521 1522 1523 1524 1525 1526 1527 1528 1528 1528 1529 1529 1529 1529 1528 1528 1527 1526 1525 1523 1522 1521 1520 1519 1519 1518 1518 1517 1516 1516 1515 1514 1513 1512 1510 1509 1507 1506 1504
1453 1455 1456 1457 1458 1458 1459 1460 1461 1462 1463 1464 1465 1466 1467 1468 1470 1473 1475 1477 1478 1480 1482 1484 1486 1488 1490 1493 1495 1497 1499 1501 1503 1505 1506 1507 1509 1510 1511 1512 1513 1514 1515 1517 1518 1519 1520 1521 1521 1522 1523 1524 1525 1526 1527 1527 1528 1528 1528 1529 1529 1529 1529 1528 1527 1526 1525 1524 1522 1521 1520 1520 1519 1519 1518 1517 1517 1516 1515 1514 1513 1512 1511 1510 1508 1507 1505
1454 1455 1456 1457 1458 1458 1459 1460 1461 1462 1463 1464 1465 1466 1467 1468 1470 1471 1474 1476 1478 1480 1481 1483 1484 1486 1489 1491 1494 1496 1499 1500 1502 1503 1505 1506 1507 1509 1510 1511 1512 1513 1515 1516 1518 1519 1520 1520 1521 1522 1523 1524 1525 1526 1526 1527 1527 1528 1528 1529 1529 1529 1529 1529 1528 1527 1525 1524 1523 1522 1521 1521 1520 1519 1518 1518 1517 1517 1516 1515 1514 1513 1512 1510 1509 1507 1505
1454 1455 1456 1456 1457 1458 1458 1460 1461 1462 1463 1464 1465 1466 1466 1468 1469 1471 1472 1475 1477 1479 1481 1483 1486 1488 1489 1491 1493 1495 1497 1500 1502 1503 1505 1506 1507 1508 1509 1510 1512 1513 1514 1516 1517 1518 1519 1520 1521 1522 1523 1524 1525 1526 1526 1526 1527 1528 1528 1529 1529 1529 1529 1529 1528 1527 1526 1524 1523 1522 1522 1521 1520 1520 1519 1518 1518 1517 1516 1515 1515 1514 1512 1511 1510 1508 1506
1454 1454 1455 1456 1457 1457 1458 1459 1460 1462 1463 1464 1464 1465 1466 1467 1469 1470 1472 1474 1476 1478 1480 1484 1486 1488 1488 1491 1493 1494 1496 1498 1501 1503 1505 1507 1508 1509 1510 1511 1511 1513 1514 1516 1517 1518 1519 1520 1521 1522 1523 1524 1525 1525 1526 1526 1527 1528 1529 1529 1529 1529 1529 1529 1528 1527 1526 1525 1524 1523 1522 1522 1521 1520 1519 1519 1518 1517 1517 1516 1515 1514 1513 1512 1510 1509 1507
1453 1454 1454 1456 1457 1458 1458 1459 1460 1462 1463 1464 1464 1465 1466 1467 1469 1470 1471 1473 1475 1477 1479 1482 1484 1485 1487 1490 1493 1494 1495 1498 1501 1503 1505 1507 1509 1509 1510 1511 1512 1513 1514 1516 1517 1518 1518 1519 1520 1521 1522 1523 1524 1525 1526 1526 1527 1528 1529 1529 1529 1529 1529 1529 1528 1528 1527 1526 1525 1524 1523 1522 1521 1521 1520 1519 1518 1518 1517 1516 1516 1515 1514 1512 1511 1509 1508
1452 1452 1453 1455 1456 1457 1458 1459 1459 1460 1462 1464 1465 1465 1465 1467 1468 1469 1470 1472 1474 1475 1477 1480 1482 1484 1487 1490 1492 1493 1494 1496 1499 1502 1505 1507 1509 1510 1511 1512 1512 1513 1514 1515 1516 1517 1518 1519 1520 1521 1522 1523 1524 1525 1525 1526 1527 1528 1529 1529 1529 1529 1529 1529 1528 1528 1527 1526 1525 1524 1524 1523 1522 1521 1520 1520 1519 1518 1518 1517 1516 1515 1514 1513 1512 1510 1508
1451 1451 1452 1453 1454 1456 1456 1457 1458 1459 1461 1463 1463 1464 1465 1465 1467 1468 1469 1471 1472 1474 1476 1478 1481 1483 1487 1490 1492 1493 1494 1495 1498 1501 1504 1506 1508 1510 1511 1511 1512 1513 1514 1515 1516 1517 1518 1519 1520 1521 1522 1523 1523 1524 1525 1526 1527 1527 1528 1529 1529 1529 1529 1529 1528 1528 1528 1527 1526 1525 1524 1524 1523 1522 1521 1520 1520 1519 1518 1518 1517 1516 1515 1514 1512 1511 1509
1450 1451 1451 1451 1453 1454 1455 1456 1459 1461 1462 1462 1462 1463 1464 1464 1466 1467 1468 1470 1471 1473 1474 1476 1479 1481 1484 1488 1490 1492 1493 1494 1496 1499 1501 1503 1504 1506 1508 1510 1511 1512 1513 1515 1516 1517 1518 1519 1520 1520 1521 1522 1523 1524 1524 1525 1526 1527 1528 1529 1529 1529 1529 1529 1529 1528 1528 1527 1526 1526 1525 1524 1524 1523 1522 1521 1520 1520 1519 1518 1517 1516 1515 1514 1513 1511 1510
1450 1450 1450 1450 1451 1453 1454 1455 1457 1460 1462 1461 1462 1463 1464 1464 1466 1467 1468 1469 1470 1472 1473 1475 1477 1479 1482 1485 1488 1490 1492 1493 1495 1496 1498 1500 1501 1503 1505 1507 1509 1511 1512 1514 1515 1516 1517 1518 1519 1520 1521 1522 1522 1523 1524 1525 1526 1527 1528 1529 1529 1529 1529 1529 1529 1529 1528 1528 1527 1526 1525 1525 1524 1523 1523 1522 1521 1520 1519 1519 1518 1517 1516 1515 1513 1512 1511